MOLNIYA 1-80 1 21118U 91012A 12038.39935064 .00001710 00000-0 10000-3 0 667 2 21118 61.6611 129.6275 7308998 266.3059 15.7343 2.00921257153700 MOLNIYA 3-40 1 21196U 91022A 12038.07800605 -.00001278 00000-0 10000-3 0 5521 2 21196 61.5941 110.6558 7354568 269.2311 14.3743 2.00702530153005 MOLNIYA 1-81 1 21426U 91043A 12038.23256999 .00000180 00000-0 10000-3 0 6553 2 21426 62.0294 107.2553 7237421 274.1867 13.7362 2.00612788151265 MOLNIYA 3-41 1 21706U 91065A 12038.73737537 .00000388 00000-0 20049-3 0 9574 2 21706 63.2933 259.7404 7292419 285.0818 10.6131 2.04356423149646 MOLNIYA 3-42 1 22178U 92067A 12038.89581350 .00009553 00000-0 18336-2 0 1141 2 22178 62.1302 44.4505 7508893 275.8616 11.4177 2.01505833141557 MOLNIYA 1-86 1 22671U 93035A 12039.64026950 .00251745 -47631-6 26027-3 0 8929 2 22671 62.6580 292.7561 5606600 285.8196 39.0841 4.80932640141648 MOLNIYA 3-45 1 22729U 93049A 12038.21049504 -.00001351 00000-0 10000-3 0 3399 2 22729 61.7954 142.4587 7325389 263.7791 16.5090 2.00332409135619 MOLNIYA 1-87 1 22949U 93079A 12038.59335180 -.00001151 00000-0 47532-2 0 8229 2 22949 62.2626 272.4902 7369503 255.0972 19.6854 2.00997941132898 MOLNIYA 1-88 1 23420U 94081A 12039.06964780 -.00000898 00000-0 95766-3 0 3589 2 23420 62.0351 84.8298 7459527 274.9784 11.9228 2.02332372125936 MOLNIYA 3-47 1 23642U 95042A 12037.62182523 .00000196 00000-0 -11052-2 0 8840 2 23642 62.0592 247.5789 7343326 260.3758 17.6535 2.00582492120893 MOLNIYA 1-89 1 24273U 96045A 12039.32417523 .00438908 10863-4 30265-3 0 5500 2 24273 62.5774 94.2917 6842959 267.8982 36.8503 2.94473879120380 MOLNIYA 1-90 1 24960U 97054A 12039.30044503 .00001976 00000-0 59706-3 0 3100 2 24960 62.3956 291.4583 7469506 257.5665 17.6724 2.04248686105428 MOLNIYA 1-91 1 25485U 98054A 12039.29202514 .00000030 00000-0 10000-3 0 4891 2 25485 63.5933 65.5271 7278896 254.0658 150.3264 2.00611674 97888 MOLNIYA 3-50 1 25847U 99036A 12038.40611826 .00000472 00000-0 10000-3 0 2007 2 25847 63.4609 163.7813 6856897 259.9205 22.5793 2.00593055 92217 MOLNIYA 3-51 1 26867U 01030A 12039.51953304 .00000261 00000-0 00000+0 0 7961 2 26867 63.9372 86.2140 7307608 256.1403 266.0035 2.00534723 77343 MOLNIYA 1-92 1 27707U 03011A 12039.23795946 -.00000312 00000-0 10000-3 0 1249 2 27707 64.6312 92.6195 7342819 247.6114 70.8763 2.00696046 64877 MOLNIYA 3-53 1 27834U 03029A 12039.79502021 .00000016 00000-0 00000+0 0 895 2 27834 64.6247 92.8874 7334200 247.9676 101.4551 2.00628581 63304 MOLNIYA 1-93 1 28163U 04005A 12039.23660773 .00000185 00000-0 10000-3 0 7545 2 28163 64.7737 179.0206 6892480 259.6006 244.9839 2.00644402 58415